Date,TemperatureHighF,TemperatureAvgF,TemperatureLowF,DewpointHighF,DewpointAvgF,DewpointLowF,HumidityHigh,HumidityAvg,HumidityLow,PressureMaxIn,PressureMinIn,WindSpeedMaxMPH,WindSpeedAvgMPH,GustSpeedMaxMPH,PrecipitationSumIn
2013-1-1,73,71,68,65,-29,-100,91,39,91,30.18,30.09,25,19,0,0.00
2013-1-3,73,73,72,69,-55,-100,91,24,91,30.12,30.06,10,10,0,0.00
2013-1-8,73,73,73,-100,-100,-100,0,0,100,30.20,30.20,29,29,0,0.00
2013-1-10,75,74,73,73,-50,-100,91,26,91,30.29,30.27,23,21,0,0.00
2013-1-11,75,74,73,73,15,-100,91,61,91,30.30,30.19,14,14,0,0.00
2013-1-12,72,72,72,69,69,69,91,91,91,30.15,30.15,14,14,0,0.00
2013-1-13,73,73,73,71,71,71,91,91,91,30.12,30.12,23,23,0,0.00
2013-1-14,73,73,73,71,71,71,91,91,91,30.15,30.15,13,13,0,0.00
2013-1-16,73,73,73,71,71,71,91,91,91,30.03,30.03,23,23,0,0.00
2013-1-18,66,66,66,-100,-100,-100,0,0,100,30.19,30.19,43,43,0,0.00
2013-1-20,75,75,75,-100,-100,-100,0,0,100,30.03,30.03,8,8,0,0.00
2013-1-21,68,68,68,-100,-100,-100,0,0,100,30.01,30.01,23,23,0,0.00
2013-1-27,73,73,73,-100,-100,-100,0,0,100,30.24,30.24,26,26,0,0.00
2013-1-28,72,72,72,-100,-100,-100,0,0,100,30.27,30.27,17,17,0,0.00
2013-1-31,64,64,64,-100,-100,-100,0,0,100,30.15,30.15,22,22,0,0.00
2013-2-2,64,64,64,62,62,62,90,90,90,30.21,30.21,21,21,0,0.00
2013-2-3,68,68,68,65,-18,-100,91,46,91,30.00,29.97,20,14,0,0.00
2013-2-4,66,65,64,62,-19,-100,90,45,90,29.97,29.94,25,13,0,0.00
2013-2-5,68,68,68,65,65,65,91,91,91,29.97,29.97,7,7,0,0.00
2013-2-6,72,72,72,69,69,69,91,91,91,29.94,29.94,7,7,0,0.00
2013-2-7,73,71,70,67,11,-100,91,61,91,29.94,29.87,15,15,0,0.00
2013-2-8,72,72,72,-100,-100,-100,0,0,100,29.90,29.90,13,13,0,0.00
2013-2-10,72,72,72,69,-37,-100,91,34,91,30.12,30.06,26,21,0,0.00
2013-2-12,73,73,73,71,71,71,91,91,91,30.03,30.03,18,18,0,0.00
2013-2-13,73,73,73,71,71,71,91,91,91,29.94,29.94,20,20,0,0.00
2013-2-14,72,72,72,-100,-100,-100,0,0,100,29.82,29.82,54,54,0,0.00
2013-2-15,68,68,68,-100,-100,-100,0,0,100,29.87,29.87,8,8,0,0.00
2013-2-17,57,57,57,-100,-100,-100,0,0,100,30.14,30.14,24,24,0,0.00
2013-2-18,64,64,64,-100,-100,-100,0,0,100,30.18,30.18,17,17,0,0.00
2013-2-19,72,72,72,-100,-100,-100,0,0,100,30.03,30.03,16,16,0,0.00
2013-2-21,72,72,72,-100,-100,-100,0,0,100,29.96,29.96,16,16,0,0.00
2013-2-24,73,73,73,71,71,71,91,91,91,29.88,29.88,15,15,0,0.00
2013-2-25,75,74,72,73,-13,-100,91,46,91,29.83,29.70,31,24,0,0.00
2013-2-26,75,75,75,73,-14,-100,91,46,91,29.81,29.74,29,20,0,0.00
2013-2-27,73,73,73,71,71,71,91,91,91,29.83,29.83,25,25,0,0.00
2013-2-28,73,69,66,71,-32,-100,91,36,91,29.83,29.83,11,10,0,0.00
2013-3-1,66,66,66,63,63,63,91,91,91,29.80,29.80,31,31,0,0.00
2013-3-2,61,61,61,58,58,58,90,90,90,29.85,29.85,18,18,0,0.00
2013-3-3,64,62,61,59,-60,-100,81,20,81,29.91,29.85,38,36,0,0.00
2013-3-4,68,61,54,47,-26,-100,78,39,78,30.09,30.03,31,20,0,0.00
2013-3-5,68,68,68,-100,-100,-100,0,0,100,30.03,30.03,3,3,0,0.00
2013-3-6,68,68,68,65,65,65,91,91,91,30.00,30.00,15,15,0,0.00
2013-3-7,70,67,66,64,-45,-100,82,27,82,30.03,29.88,37,21,0,0.00
2013-3-8,72,68,63,57,-21,-100,80,40,80,30.09,30.08,20,18,0,0.00
2013-3-9,66,66,66,63,63,63,91,91,91,30.00,30.00,20,20,0,0.00
2013-3-10,68,68,68,-100,-100,-100,0,0,100,30.00,30.00,21,21,0,0.00
2013-3-11,70,70,70,-100,-100,-100,0,0,100,29.87,29.87,29,29,0,0.00
2013-3-12,72,72,72,-100,-100,-100,0,0,100,29.88,29.88,22,22,0,0.00
2013-3-14,66,66,66,-100,-100,-100,0,0,100,30.05,30.05,23,23,0,0.00
2013-3-15,68,68,68,-100,-100,-100,0,0,100,30.09,30.09,11,11,0,0.00
2013-3-17,72,72,72,-100,-100,-100,0,0,100,29.97,29.97,14,14,0,0.00
2013-3-18,68,68,68,-100,-100,-100,0,0,100,29.87,29.87,29,29,0,0.00
2013-3-19,72,72,72,-100,-100,-100,0,0,100,29.83,29.83,11,11,0,0.00
2013-3-21,66,66,66,-100,-100,-100,0,0,100,29.81,29.81,14,14,0,0.00
2013-3-22,68,68,68,-100,-100,-100,0,0,100,29.87,29.87,23,23,0,0.00
2013-3-25,70,70,70,-100,-100,-100,0,0,100,29.80,29.80,15,15,0,0.00
2013-3-26,70,69,68,62,-35,-100,74,30,74,29.97,29.85,26,24,0,0.00